Terug naar catalogus

OPS 4682 DEB

ActiefPO
NORAD 38438·DEBRIS·🇺🇸 United States

Gelanceerd Apr 3, 1965 vanaf Vandenberg Space Force Base

Loading…

Volgende Passages (komende 24 uur)

TLE

VersSource: Space-Track

Epoch: Sep 14, 2026, 06:56 UTC

1 38438U 65027ET  26257.28907807  .00000259  00000-0  92123-3 0  9995
2 38438  90.2470   7.5856 0029593  42.5767 317.7638 12.93149022672553

Volg OPS 4682 DEB in realtime met AllMySat

Download on the App Store